STARLINK-35193, 65889

Orbit data source: Space-Track

STARLINK-35193, 65889 is a payload satellite owned by SpaceX/Seattle (US) in LEO that was launched on Tue, 07 Oct 2025 UTC via an FALCON 9 launch vehicle from the Air Force Eastern Test Range (AFETR). Payload-class satellites include a variety of spacecraft equipped with specific instruments for various scientific and technological missions. These include communications satellites like Starlink; space stations such as the ISS; scientific satellites like the Hubble; Earth observation satellites from companies like Planet Labs, Umbra, and HawkEye 360; GPS; miniature CubeSats for education and research; and military/defense satellites.

Loading next visibility...
Identifier
65889, 2025-224H
Orbit
LEO
Country
Flag of USUS
Related business
Manufacturer
SpaceX/Seattle
Mission
Operational Commercial Communications
Bus & Motor
STARLINK V2MO, Unknown motor
Mass
575 kg wet, ~530 kg dry
Launch date (UTC)
2025-10-07 (5 months ago)
Launch vehicle
FALCON 9
Launch site
Air Force Eastern Test Range (AFETR)
Object type
Payload
Rocket body
Debris
Shape & HBR
Box + 2 Pan, 17.7 m
Radar Cross Section
36.964 m²

Expand to show TLE details & history
Last TLE update: 7 hours ago

TLE from 7 hours ago
0 STARLINK-35193
1 65889U 25224H   26062.37452331  .00021521  00000-0  73641-3 0  9990
2 65889  53.1597  40.9463 0000831 153.7318 206.3725 15.30210049 23885
Epoch: 2026-03-03T08:59Z
TLE epoch observation values (Epoch: 2026-03-03T08:59:18.813Z)
Latitude
-0.00005°
Longitude
104.96338°
Altitude
476.595 km
Speed
7.628 km/s
True Right ascension
02h 43m 47s
True Declination
0° 00' 00"
Sunlit
Object was in daylight at epoch
Visualization orbit readout
Latitude
Unknown
Longitude
Unknown
Altitude
Unknown
Speed
Unknown
Apparent Right ascension
Unknown
Apparent Declination
Unknown
Sunlit
N/A
Visualization observer readout
Local Sidereal Time
19:32:34
Azimuth
Unknown
Elevation
Unknown
Doppler factor
Unknown
Orbital elements
Apogee altitude
476.011 km
Perigee altitude
474.872 km
Semi-major axis
6,853.579 km
Eccentricity
0.00008
Inclination
53.1597°
RAAN
40.9463°
Arg. of periapsis
153.7318°
True anomaly
206.36827°
Mean anomaly
206.3725°
Eccentric anomaly
206.37039°
Mean motion
3.82531 °/min
Orbital period
94.11 mins
BSTAR
0.00073641
Loading maneuver chart data...
Computing Atmospheric mass density...
Loading historical data...
Loading historical data...
Loading historical data...
Loading historical data...
Loading historical data...
Loading historical data...
Loading historical data...

Documentation

Showing up to 5 results
|